AJ5TT Weather Reports


time (UTC)temp
C
wind
direction
speed
KPH
gust
KPH
rain 1hr
cm
rain 24hr
cm
rain mn
cm
humidity
%
barometer
mb
20260905011606 29 149 0.0 3.2 0.00 0.00 0.00 78 1013.6
20260905010108 29 0 0.0 3.2 0.00 0.00 0.00 77 1013.6
20260905004610 30 163 0.0 6.4 0.00 0.00 0.00 76 1013.3
20260905003105 30 229 1.6 9.7 0.00 0.00 0.00 75 1013.3
20260905001602 30 206 1.6 8.0 0.00 0.00 0.00 73 1013.3
20260905000059 31 163 4.8 11.3 0.00 0.00 0.00 72 1013.2
20260904234606 31 167 3.2 8.0 0.00 0.00 0.00 70 1013.1
20260904233108 32 221 1.6 4.8 0.00 0.00 0.00 69 1013.1
20260904231604 32 266 1.6 6.4 0.00 0.00 0.00 68 1013.2
20260904230109 32 171 3.2 9.7 0.00 0.00 0.00 67 1013.1
20260904224605 32 223 1.6 4.8 0.00 0.00 0.00 67 1013.2
20260904223059 32 335 1.6 9.7 0.00 0.00 0.00 66 1013.2
20260904221605 33 215 3.2 8.0 0.00 0.00 0.00 63 1013.2
20260904220116 33 248 3.2 11.3 0.00 0.00 0.00 64 1013.0
20260904214605 33 238 3.2 9.7 0.00 0.00 0.00 62 1013.2
20260904213113 33 126 1.6 6.4 0.00 0.00 0.00 62 1013.3
20260904211614 33 118 3.2 8.0 0.00 0.00 0.00 63 1013.6
20260904210110 33 263 3.2 9.7 0.00 0.00 0.00 65 1013.6
20260904204611 32 253 3.2 12.9 0.00 0.00 0.00 64 1013.9
20260904203106 33 119 3.2 17.7 0.00 0.00 0.00 64 1013.9
20260904201625 34 70 1.6 14.5 0.00 0.00 0.00 58 1014.1
20260904194620 32 48 6.4 17.7 0.00 0.00 0.00 61 1014.2
20260904193111 33 12 3.2 20.9 0.00 0.00 0.00 63 1014.4
20260904191602 32 13 6.4 17.7 0.00 0.00 0.00 64 1014.7
20260904190111 32 234 4.8 8.0 0.00 0.00 0.00 68 1014.9
20260904184603 32 192 3.2 8.0 0.00 0.00 0.00 68 1015.1
20260904183120 31 224 6.4 11.3 0.00 0.00 0.00 73 1015.0
20260904181604 30 225 6.4 12.9 0.00 0.00 0.00 73 1015.4
20260904180124 29 225 4.8 14.5 0.00 0.00 0.00 75 1015.7
20260904174610 30 240 6.4 16.1 0.00 0.00 0.00 76 1015.8
20260904173107 31 274 0.0 4.8 0.00 0.00 0.00 71 1015.7
20260904171603 31 113 0.0 4.8 0.00 0.00 0.00 77 1015.8
20260904170057 30 23 0.0 4.8 0.00 0.00 0.00 78 1016.0
20260904164608 29 72 0.0 3.2 0.00 0.00 0.00 83 1016.1
20260904163100 28 41 0.0 3.2 0.00 0.00 0.00 82 1016.1
20260904161627 28 0 0.0 4.8 0.00 0.00 0.00 81 1016.1
20260904160107 28 61 1.6 6.4 0.00 0.00 0.00 82 1015.8
20260904154605 28 333 0.0 3.2 0.00 0.00 0.00 83 1015.8
20260904153104 28 22 3.2 4.8 0.00 0.00 0.00 85 1015.8
20260904151602 28 46 0.0 6.4 0.00 0.00 0.00 86 1015.5
20260904150100 28 39 1.6 3.2 0.00 0.00 0.00 86 1015.3
20260904144609 28 70 0.0 4.8 0.00 0.00 0.00 86 1015.3
20260904143103 27 52 0.0 3.2 0.00 0.00 0.00 88 1015.2
20260904141602 27 0 0.0 3.2 0.00 0.00 0.00 91 1015.1
20260904134606 26 0 0.0 3.2 0.00 0.00 0.00 93 1015.0
20260904133121 26 0 0.0 0.0 0.00 0.00 0.00 93 1015.0
20260904131606 26 0 0.0 0.0 0.00 0.00 0.00 93 1014.8
20260904130059 26 0 0.0 0.0 0.00 0.00 0.00 93 1014.7
20260904124611 26 0 0.0 0.0 0.00 0.00 0.00 93 1014.6
20260904123104 26 0 0.0 0.0 0.00 0.00 0.00 94 1014.2
20260904121604 25 0 0.0 0.0 0.00 0.00 0.00 93 1014.0
20260904120107 25 0 0.0 0.0 0.00 0.00 0.00 93 1014.0
20260904114608 25 0 0.0 0.0 0.00 0.00 0.00 93 1013.9
20260904113105 25 0 0.0 0.0 0.00 0.00 0.00 93 1014.0
20260904111606 25 0 0.0 0.0 0.00 0.00 0.00 93 1014.1
20260904110104 25 0 0.0 0.0 0.00 0.00 0.00 92 1014.0
20260904104559 26 0 0.0 0.0 0.00 0.00 0.00 92 1013.9
20260904103103 26 0 0.0 0.0 0.00 0.00 0.00 92 1013.9
20260904101609 26 0 0.0 0.0 0.00 0.00 0.00 92 1013.7
20260904094608 26 0 0.0 0.0 0.00 0.00 0.00 92 1013.5
20260904093106 26 0 0.0 0.0 0.00 0.00 0.00 92 1013.4
20260904091601 26 0 0.0 0.0 0.00 0.00 0.00 92 1013.3
20260904090056 26 0 0.0 0.0 0.00 0.00 0.00 92 1013.4
20260904084605 26 0 0.0 0.0 0.00 0.00 0.00 91 1013.3
20260904083110 26 0 0.0 0.0 0.00 0.00 0.00 90 1013.3
20260904081555 26 0 0.0 0.0 0.00 0.00 0.00 90 1013.3
20260904080104 26 0 0.0 0.0 0.00 0.00 0.00 89 1013.4
20260904074604 26 0 0.0 0.0 0.00 0.00 0.00 88 1013.5
20260904073105 27 0 0.0 0.0 0.00 0.00 0.00 88 1013.6
20260904071606 27 0 0.0 0.0 0.00 0.00 0.00 87 1013.5
20260904070109 27 0 0.0 4.8 0.00 0.00 0.00 86 1013.6
20260904064623 27 180 0.0 6.4 0.00 0.00 0.00 86 1013.7
20260904063110 27 186 0.0 3.2 0.00 0.00 0.00 86 1013.6
20260904061605 27 182 0.0 3.2 0.00 0.00 0.00 86 1013.7
20260904060123 27 0 0.0 4.8 0.00 0.00 0.00 87 1013.7
20260904054606 27 176 0.0 4.8 0.00 0.00 0.00 87 1013.8
20260904053102 27 0 0.0 0.0 0.00 0.00 0.00 88 1013.9
20260904051609 27 0 0.0 0.0 0.00 0.00 0.00 88 1013.8
20260904044606 27 0 0.0 0.0 0.00 0.00 0.00 87 1013.8
20260904043112 27 0 0.0 3.2 0.00 0.00 0.00 87 1013.7
20260904041601 27 177 0.0 3.2 0.00 0.00 0.00 87 1013.7
20260904040109 27 186 0.0 3.2 0.00 0.00 0.00 86 1013.8
20260904034603 27 0 0.0 3.2 0.00 0.00 0.00 86 1013.9
20260904033101 27 0 0.0 3.2 0.00 0.00 0.00 85 1013.8
20260904031610 27 0 0.0 0.0 0.00 0.00 0.00 85 1014.0
20260904030104 27 0 0.0 0.0 0.00 0.00 0.00 86 1014.1
20260904024609 27 0 0.0 0.0 0.00 0.00 0.00 86 1013.9
20260904023101 27 0 0.0 0.0 0.00 0.00 0.00 85 1013.9
20260904021608 28 0 0.0 3.2 0.00 0.00 0.00 85 1013.7
20260904020106 28 0 0.0 3.2 0.00 0.00 0.00 84 1013.6
20260904014602 28 0 0.0 3.2 0.00 0.00 0.00 84 1013.4
20260904013126 28 0 0.0 3.2 0.00 0.00 0.00 84 1013.2